Regional Weather Roundup
Issued by NWS

Home | Current Version | Previous Version | Graphics & Text | Print | Product List | Glossary On
Versions: 1 2 3 4 5 6 7 8 9 10 11 12 13 14 15 16 17 18 19 20 21 22 23 24 25 26 27 28 29 30 31 32 33 34 35 36 37 38 39 40 41 42 43 44 45 46 47 48 49 50
000
ASUS43 KBIS 271010
RWRND

NORTH DAKOTA REGIONAL WEATHER ROUNDUP
NATIONAL WEATHER SERVICE BISMARCK ND
500 AM CDT SAT MAY 27 2017

NOTE: "FAIR" INDICATES FEW OR NO CLOUDS BELOW 12,000 FEET WITH NO
SIGNIFICANT WEATHER AND/OR OBSTRUCTIONS TO VISIBILITY.


NDZ001>003-009>011-017-271100-
NORTHWEST NORTH DAKOTA

CITY           SKY/WX    TMP DP  RH WIND       PRES   REMARKS
WILLISTON      CLOUDY    49  40  71 W10       29.87R
MINOT          FAIR      50  39  66 SW10      29.80S
MINOT AFB      PTCLDY    48  39  72 W12       29.79S
$$

NDZ018>021-031>035-040>046-271100-
SOUTHWEST NORTH DAKOTA

CITY           SKY/WX    TMP DP  RH WIND       PRES   REMARKS
BISMARCK       FAIR      46  37  71 CALM      29.88R
DICKINSON      FAIR      39  33  79 W9        29.89R
GARRISON         N/A     44  37  76 W12       29.84S
HETTINGER ARPT CLEAR     38  33  82 W5        29.93S
$$

NDZ004>008-012>016-024-026-027-054-271100-
NORTHEAST NORTH DAKOTA

CITY           SKY/WX    TMP DP  RH WIND       PRES   REMARKS
GRAND FORKS    CLOUDY    51  43  74 SW9       29.76F
GRND FRKS AFB  PTCLDY    48  41  76 SW8       29.77F
DEVILS LAKE    FAIR      50  43  77 W10       29.79S
$$

NDZ022-023-025-028>030-036>039-047>053-271100-
SOUTHEAST NORTH DAKOTA

CITY           SKY/WX    TMP DP  RH WIND       PRES   REMARKS
FARGO          MOCLDY    49  43  80 S7        29.82S
JAMESTOWN      FAIR      51  41  68 W8        29.82S
$$




USA.gov is the U.S. government's official web portal to all federal, state and local government web resources and services.